1382745630334,0.000168533
1382745690334,0.000169086
1382745750334,0.000169511
1382745810334,0.000169775
1382745870334,0.000169623
1382745930334,0.000169289
1382745990334,0.000169074
1382746050334,0.000168055
1382746110334,0.000168221
1382746170334,0.000166567
1382746230334,0.000168286
1382746290334,0.000169242
1382746350334,0.000167998
1382746410334,0.000169382
1382746470334,0.000169900
1382746530334,0.000169548
1382746590334,0.000171275
1382746650334,0.000169988
1382746710334,0.000173085
1382746770334,0.000171411
1382746830334,0.000171373
1382746890334,0.000172253
1382746950334,0.000171773
1382747010334,0.000172135
1382747070334,0.000171642
1382747130334,0.000171671
1382747190334,0.000170102
1382747250334,0.000170539
1382747310334,0.000173752
1382747370334,0.000175316
1382747430334,0.000176050
1382747490334,0.000172273
1382747550334,0.000171742
1382747610334,0.000169850
1382747670334,0.000167831
1382747730334,0.000166757
1382747790334,0.000167639
1382747850334,0.000166326
1382747910334,0.000166820
1382747970334,0.000166554
1382748030334,0.000167448
1382748090334,0.000165600
1382748150334,0.000164859
1382748210334,0.000165901
1382748270334,0.000166605
1382748330334,0.000167095
1382748390334,0.000166266
1382748450334,0.000167719
1382748510334,0.000166588
1382748570334,0.000167600
1382748630334,0.000165934
1382748690334,0.000167346
1382748750334,0.000170749
1382748810334,0.000171091
1382748870334,0.000170053
1382748930334,0.000168494
1382748990334,0.000169603
1382749050334,0.000166028
1382749110334,0.000165852
1382749170334,0.000166588
1382749230343,0.000167491
1382749290343,0.000168942
1382749350343,0.000168261
1382749410343,0.000168313
1382749470343,0.000168747
1382749530343,0.000167746
1382749590343,0.000165449
1382749650343,0.000166540
1382749710343,0.000163929
1382749770343,0.000164769
1382749830343,0.000165378
1382749890343,0.000164937
1382749950343,0.000168177
1382750010343,0.000166899
1382750070343,0.000166636
1382750130343,0.000168797
1382750190343,0.000168114
1382750250343,0.000169035
1382750310343,0.000166746
1382750370343,0.000167146
1382750430343,0.000165712
1382750490343,0.000166152
1382750550343,0.000168078
1382750610343,0.000169197
1382750670343,0.000166449
1382750730343,0.000165653
1382750790343,0.000167478
1382750850343,0.000166873
1382750910343,0.000168026
1382750970343,0.000168097
1382751030343,0.000168269
1382751090343,0.000167259
1382751150343,0.000170078
1382751210343,0.000168094
1382751270343,0.000167219
1382751330343,0.000169598
1382751390343,0.000169408
1382751450343,0.000168626
1382751510343,0.000169061
1382751570343,0.000168643
1382751630343,0.000167254
1382751690343,0.000168399
1382751750343,0.000170712
1382751810343,0.000172105
1382751870343,0.000171306
1382751930343,0.000170543
1382751990343,0.000169768
1382752050343,0.000171303
1382752110343,0.000168951
1382752170343,0.000170267
1382752230343,0.000170793
1382752290343,0.000168479
1382752350343,0.000171824
1382752410343,0.000172972
1382752470343,0.000174800
1382752530343,0.000169980
1382752590343,0.000171711
1382752650343,0.000168887
1382752710343,0.000170356
1382752770343,0.000168168
1382752830353,0.000169940
1382752890353,0.000173540
1382752950353,0.000172970
1382753010353,0.000170155
1382753070353,0.000166750
1382753130353,0.000167102
1382753190353,0.000167667
1382753250353,0.000169369
1382753310353,0.000170079
1382753370353,0.000171873
1382753430353,0.000170961
1382753490353,0.000170633
1382753550353,0.000169097
1382753610353,0.000166413
1382753670353,0.000165986
1382753730353,0.000168050
1382753790353,0.000170007
1382753850353,0.000170303
1382753910353,0.000167256
1382753970353,0.000168548
1382754030353,0.000167273
1382754090353,0.000168433
1382754150353,0.000167668
1382754210353,0.000168284
1382754270353,0.000174204
1382754330353,0.000173038
1382754390353,0.000172313
1382754450353,0.000170819
1382754510353,0.000170344
1382754570353,0.000170693
1382754630353,0.000170090
1382754690353,0.000168136
1382754750353,0.000167194
1382754810353,0.000166830
1382754870353,0.000171659
1382754930353,0.000167520
1382754990353,0.000167076
1382755050353,0.000165593
1382755110353,0.000164709
1382755170353,0.000165465
1382755230353,0.000167594
1382755290353,0.000166520
1382755350353,0.000165816
1382755410353,0.000169457
1382755470353,0.000174463
1382755530353,0.000179773
1382755590353,0.000176920
1382755650353,0.000176244
1382755710353,0.000173732
1382755770353,0.000171828
1382755830353,0.000171806
1382755890353,0.000171836
1382755950353,0.000169826
1382756010353,0.000168420
1382756070353,0.000168616
1382756130353,0.000168044
1382756190353,0.000168787
1382756250353,0.000170062
1382756310353,0.000166594
1382756370353,0.000167870
1382756430362,0.000169731
1382756490362,0.000168172
1382756550362,0.000165342
1382756610362,0.000167262
1382756670362,0.000166542
1382756730362,0.000167186
1382756790362,0.000168475
1382756850362,0.000165591
1382756910362,0.000166473
1382756970362,0.000166174
1382757030362,0.000168160
1382757090362,0.000165822
1382757150362,0.000165426
1382757210362,0.000167957
1382757270362,0.000168552
1382757330362,0.000171527
1382757390362,0.000170335
1382757450362,0.000171093
1382757510362,0.000170084
1382757570362,0.000168552
1382757630362,0.000167661
1382757690362,0.000167929
1382757750362,0.000168306
1382757810362,0.000166414
1382757870362,0.000167557
1382757930362,0.000167014
1382757990362,0.000165709
1382758050362,0.000166457
1382758110362,0.000165975
1382758170362,0.000166248
1382758230362,0.000166199
1382758290362,0.000165575
1382758350362,0.000164386
1382758410362,0.000165539
1382758470362,0.000163474
1382758530362,0.000165931
1382758590362,0.000165212
1382758650362,0.000167037
1382758710362,0.000169243
1382758770362,0.000167679
1382758830362,0.000168812
1382758890362,0.000168855
1382758950362,0.000166939
1382759010362,0.000168312
1382759070362,0.000170172
1382759130362,0.000169830
1382759190362,0.000170804
1382759250362,0.000168630
1382759310362,0.000167653
1382759370362,0.000165455
1382759430362,0.000165214
1382759490362,0.000165933
1382759550362,0.000167475
1382759610362,0.000166527
1382759670362,0.000199930
1382759730362,0.000166269
1382759790362,0.000168110
1382759850362,0.000168953
1382759910362,0.000166565
1382759970362,0.000168261
1382760030372,0.000165964
1382760090372,0.000166968
1382760150372,0.000166319
1382760210372,0.000167559
1382760270372,0.000167428
1382760330372,0.000166392
1382760390371,0.000166137
1382760450371,0.000166079
1382760510371,0.000165422
1382760570371,0.000165741
1382760630371,0.000165754
1382760690371,0.000168490
1382760750371,0.000166673
1382760810371,0.000167544
1382760870371,0.000168899
1382760930371,0.000173458
1382760990371,0.000170682
1382761050372,0.000169954
1382761110371,0.000166868
1382761170371,0.000167704
1382761230371,0.000168637
1382761290371,0.000169575
1382761350371,0.000168016
1382761410372,0.000169072
1382761470372,0.000167969
1382761530372,0.000168086
1382761590372,0.000167487
1382761650372,0.000167390
1382761710372,0.000168583
1382761770371,0.000167928
1382761830371,0.000167969
1382761890371,0.000165227
1382761950371,0.000169430
1382762010371,0.000166521
1382762070371,0.000166577
1382762130371,0.000167608
1382762190371,0.000167408
1382762250371,0.000167957
1382762310371,0.000165667
1382762370371,0.000165568
1382762430371,0.000166268
1382762490371,0.000167173
1382762550371,0.000166478
1382762610371,0.000168106
1382762670371,0.000167968
1382762730372,0.000166783
1382762790372,0.000166579
1382762850372,0.000167368
1382762910372,0.000165772
1382762970372,0.000167296
1382763030372,0.000165882
1382763090371,0.000168210
1382763150371,0.000168376
1382763210371,0.000168647
1382763270371,0.000170197
1382763330371,0.000170638
1382763390371,0.000168955
1382763450371,0.000169808
1382763510371,0.000171247
1382763570371,0.000171823
1382763630381,0.000170505
1382763690381,0.000173916
1382763750381,0.000175340
1382763810381,0.000175202
1382763870381,0.000171887
1382763930381,0.000169408
1382763990381,0.000171092
1382764050381,0.000169718
1382764110381,0.000168598
1382764170381,0.000168536
1382764230381,0.000170072
1382764290381,0.000168976
1382764350381,0.000167956
1382764410381,0.000169231
1382764470381,0.000170596
1382764530381,0.000169557
1382764590381,0.000169399
1382764650381,0.000170040
1382764710381,0.000168351
1382764770381,0.000168468
1382764830381,0.000169509
1382764890381,0.000169389
1382764950381,0.000171234
1382765010381,0.000172208
1382765070381,0.000172924
1382765130381,0.000171465
1382765190381,0.000168090
1382765250381,0.000168601
1382765310381,0.000168053
1382765370381,0.000167507
1382765430381,0.000170036
1382765490381,0.000166471
1382765550381,0.000167213
1382765610381,0.000167734
1382765670381,0.000168244
1382765730381,0.000167911
1382765790381,0.000169242
1382765850381,0.000167711
1382765910381,0.000166731
1382765970381,0.000166354
1382766030381,0.000167561
1382766090381,0.000167864
1382766150381,0.000168495
1382766210381,0.000168032
1382766270381,0.000167903
1382766330381,0.000169804
1382766390381,0.000168631
1382766450381,0.000167855
1382766510381,0.000169803
1382766570381,0.000172029
1382766630381,0.000171270
1382766690381,0.000171822
1382766750381,0.000171160
1382766810381,0.000171857
1382766870381,0.000170613
1382766930381,0.000170758
1382766990381,0.000172722
1382767050381,0.000172557
1382767110381,0.000173257
1382767170381,0.000174252
1382767230391,0.000173232
1382767290391,0.000174895
1382767350391,0.000179387
1382767410391,0.000188550
1382767470391,0.000187614
1382767530391,0.000187456
1382767590391,0.000184565
1382767650391,0.000180475
1382767710391,0.000182813
1382767770391,0.000182967
1382767830391,0.000184017
1382767890391,0.000184276
1382767950391,0.000181410
1382768010391,0.000180699
1382768070391,0.000178965
1382768130391,0.000178972
1382768190391,0.000176028
1382768250391,0.000178079
1382768310391,0.000178454
1382768370391,0.000176908
1382768430391,0.000177887
1382768490391,0.000176540
1382768550391,0.000176485
1382768610391,0.000175465
1382768670391,0.000176596
1382768730391,0.000174195
1382768790391,0.000174791
1382768850391,0.000177799
1382768910391,0.000176112
1382768970391,0.000174861
1382769030391,0.000176665
1382769090391,0.000176779
1382769150391,0.000175641
1382769210391,0.000177156
1382769270391,0.000177589
1382769330391,0.000174830
1382769390391,0.000175395
1382769450391,0.000172664
1382769510391,0.000171428
1382769570391,0.000171087
1382769630391,0.000171917
1382769690391,0.000172073
1382769750391,0.000172458
1382769810391,0.000170804
1382769870391,0.000169584
1382769930391,0.000172187
1382769990391,0.000173646
1382770050391,0.000171465
1382770110391,0.000170660
1382770170391,0.000169847
1382770230391,0.000170451
1382770290391,0.000173214
1382770350391,0.000171518
1382770410391,0.000170388
1382770470391,0.000170266
1382770530391,0.000168089
1382770590391,0.000169679
1382770650391,0.000169601
1382770710391,0.000170401
1382770770391,0.000172149
1382770830400,0.000175103
1382770890400,0.000173063
1382770950400,0.000172284
1382771010400,0.000169113
1382771070400,0.000169490
1382771130400,0.000170267
1382771190400,0.000172208
1382771250400,0.000174501
1382771310400,0.000175395
1382771370400,0.000172048
1382771430400,0.000175137
1382771490400,0.000171583
1382771550400,0.000171480
1382771610400,0.000169293
1382771670400,0.000169522
1382771730400,0.000170246
1382771790400,0.000172348
1382771850400,0.000172741
1382771910400,0.000175717
1382771970400,0.000175148
1382772030400,0.000175121
1382772090400,0.000171950
1382772150400,0.000171666
1382772210400,0.000170434
1382772270400,0.000170678
1382772330400,0.000170636
1382772390400,0.000169605
1382772450400,0.000170690
1382772510400,0.000172032
1382772570400,0.000170851
1382772630400,0.000174481
1382772690400,0.000174032
1382772750400,0.000172761
1382772810400,0.000173474
1382772870400,0.000173991
1382772930400,0.000172662
1382772990400,0.000171381
1382773050400,0.000172508
1382773110400,0.000172168
1382773170400,0.000172098
1382773230400,0.000171315
1382773290400,0.000170370
1382773350400,0.000171735
1382773410400,0.000171264
1382773470400,0.000168898
1382773530400,0.000170007
1382773590400,0.000171004
1382773650400,0.000169213
1382773710400,0.000169243
1382773770400,0.000166463
1382773830400,0.000167426
1382773890400,0.000168954
1382773950400,0.000168570
1382774010400,0.000168386
1382774070400,0.000166446
1382774130400,0.000167287
1382774190400,0.000167219
1382774250400,0.000168167
1382774310400,0.000169132
1382774370400,0.000168095
1382774430410,0.000171540
1382774490410,0.000173386
1382774550410,0.000173233
1382774610410,0.000176503
1382774670410,0.000171412
1382774730410,0.000169169
1382774790410,0.000166531
1382774850410,0.000169958
1382774910410,0.000171005
1382774970410,0.000170982
1382775030410,0.000169322
1382775090410,0.000169551
1382775150410,0.000169461
1382775210410,0.000169864
1382775270410,0.000169668
1382775330410,0.000171971
1382775390410,0.000172906
1382775450410,0.000170081
1382775510410,0.000171804
1382775570410,0.000174547
1382775630410,0.000171096
1382775690410,0.000171821
1382775750410,0.000171428
1382775810410,0.000171381
1382775870410,0.000170574
1382775930410,0.000169972
1382775990410,0.000171952
1382776050410,0.000172621
1382776110410,0.000171612
1382776170410,0.000173280
1382776230410,0.000174518
1382776290410,0.000172859
1382776350410,0.000173770
1382776410410,0.000175243
1382776470410,0.000175686
1382776530410,0.000176622
1382776590410,0.000177405
1382776650410,0.000178258
1382776710410,0.000178921
1382776770410,0.000186406
1382776830410,0.000196437
1382776890410,0.000194960
1382776950410,0.000204064
1382777010410,0.000202695
1382777070410,0.000198414
1382777130410,0.000188519
1382777190410,0.000182217
1382777250410,0.000177155
1382777310410,0.000175527
1382777370410,0.000178137
1382777430410,0.000178158
1382777490410,0.000180009
1382777550410,0.000178346
1382777610410,0.000179329
1382777670410,0.000181206
1382777730410,0.000185245
1382777790410,0.000178832
1382777850410,0.000178103
1382777910410,0.000173884
1382777970410,0.000175472
1382778030421,0.000172506
1382778090421,0.000171934
1382778150421,0.000171447
1382778210421,0.000171760
1382778270421,0.000170708
1382778330421,0.000170487
1382778390421,0.000169070
1382778450421,0.000170522
1382778510421,0.000168249
1382778570421,0.000170665
1382778630421,0.000170676
1382778690421,0.000169470
1382778750421,0.000171227
1382778810421,0.000170318
1382778870421,0.000170501
1382778930421,0.000170786
1382778990421,0.000173443
1382779050421,0.000172211
1382779110421,0.000172184
1382779170421,0.000180466
1382779230421,0.000186750
1382779290421,0.000188536
1382779350421,0.000180985
1382779410421,0.000178787
1382779470421,0.000210458
1382779530421,0.000225715
1382779590421,0.000206324
1382779650421,0.000197164
1382779710421,0.000193784
1382779770421,0.000185350
1382779830421,0.000180885
1382779890421,0.000182714
1382779950421,0.000181888
1382780010421,0.000182086
1382780070421,0.000185233
1382780130421,0.000213368
1382780190421,0.000191570
1382780250421,0.000186098
1382780310421,0.000179610
1382780370421,0.000175329
1382780430421,0.000174695
1382780490421,0.000172616
1382780550421,0.000175133
1382780610421,0.000175418
1382780670421,0.000174419
1382780730421,0.000175195
1382780790421,0.000174748
1382780850421,0.000175132
1382780910421,0.000174943
1382780970421,0.000173922
1382781030421,0.000172826
1382781090421,0.000172948
1382781150421,0.000173106
1382781210421,0.000172964
1382781270421,0.000172565
1382781330421,0.000174059
1382781390421,0.000170561
1382781450421,0.000170839
1382781510421,0.000169681
1382781570421,0.000172303
1382781630431,0.000169443
1382781690431,0.000171094
1382781750431,0.000170131
1382781810431,0.000168526
1382781870431,0.000169908
1382781930431,0.000170537
1382781990431,0.000171561
1382782050431,0.000171111
1382782110431,0.000171218
1382782170431,0.000169290
1382782230431,0.000170864
1382782290431,0.000171223
1382782350431,0.000169274
1382782410431,0.000169755
1382782470431,0.000170994
1382782530431,0.000169782
1382782590431,0.000170110
1382782650431,0.000171661
1382782710431,0.000172411
1382782770431,0.000170785
1382782830431,0.000172335
1382782890431,0.000170847
1382782950431,0.000172571
1382783010431,0.000170958
1382783070431,0.000171155
1382783130431,0.000170054
1382783190431,0.000169900
1382783250431,0.000169710
1382783310431,0.000170614
1382783370431,0.000171053
1382783430431,0.000170748
1382783490431,0.000173038
1382783550431,0.000173217
1382783610431,0.000172293
1382783670431,0.000171104
1382783730431,0.000169660
1382783790431,0.000168991
1382783850431,0.000169958
1382783910431,0.000169068
1382783970431,0.000170489
1382784030431,0.000171453
1382784090431,0.000171636
1382784150431,0.000170109
1382784210431,0.000171535
1382784270431,0.000171150
1382784330431,0.000171809
1382784390431,0.000171466
1382784450431,0.000174342
1382784510431,0.000175621
1382784570431,0.000175977
1382784630431,0.000174817
1382784690431,0.000173289
1382784750431,0.000175188
1382784810431,0.000175482
1382784870431,0.000176724
1382784930431,0.000178849
1382784990431,0.000178211
1382785050431,0.000179793
1382785110431,0.000180210
1382785170431,0.000182320
1382785230442,0.000181042
1382785290442,0.000180081
1382785350442,0.000178142
1382785410442,0.000180201
1382785470442,0.000179447
1382785530442,0.000181136
1382785590442,0.000181851
1382785650442,0.000181134
1382785710442,0.000178860
1382785770442,0.000177454
1382785830442,0.000177943
1382785890442,0.000175690
1382785950442,0.000173309
1382786010442,0.000172811
1382786070442,0.000172893
1382786130442,0.000174855
1382786190442,0.000172387
1382786250442,0.000174097
1382786310442,0.000172649
1382786370442,0.000173766
1382786430442,0.000175219
1382786490442,0.000171954
1382786550442,0.000173324
1382786610442,0.000173487
1382786670442,0.000172573
1382786730442,0.000172496
1382786790442,0.000172944
1382786850442,0.000171669
1382786910442,0.000171729
1382786970442,0.000172584
1382787030442,0.000171005
1382787090442,0.000170789
1382787150442,0.000171686
1382787210442,0.000171484
1382787270442,0.000169784
1382787330442,0.000170626
1382787390442,0.000170681
1382787450442,0.000171150
1382787510442,0.000171126
1382787570442,0.000169750
1382787630442,0.000170017
1382787690442,0.000172260
1382787750442,0.000170084
1382787810442,0.000170629
1382787870442,0.000171610
1382787930442,0.000169841
1382787990442,0.000170494
1382788050442,0.000171861
1382788110442,0.000174593
1382788170442,0.000172295
1382788230442,0.000172713
1382788290442,0.000172958
1382788350442,0.000175275
1382788410442,0.000171334
1382788470442,0.000171017
1382788530442,0.000170186
1382788590442,0.000168183
1382788650442,0.000169260
1382788710442,0.000168649
1382788770442,0.000169622
1382788830453,0.000170154
1382788890453,0.000170021
1382788950453,0.000168490
1382789010453,0.000170234
1382789070453,0.000168026
1382789130453,0.000169114
1382789190453,0.000169807
1382789250452,0.000170179
1382789310452,0.000168196
1382789370452,0.000170424
1382789430452,0.000167862
1382789490452,0.000168127
1382789550452,0.000169220
1382789610452,0.000168269
1382789670453,0.000167022
1382789730453,0.000165663
1382789790453,0.000167994
1382789850453,0.000167995
1382789910452,0.000167916
1382789970453,0.000168982
1382790030453,0.000170088
1382790090453,0.000171537
1382790150453,0.000169648
1382790210453,0.000167765
1382790270453,0.000168910
1382790330453,0.000171286
1382790390453,0.000171689
1382790450453,0.000172050
1382790510453,0.000172048
1382790570453,0.000171505
1382790630452,0.000170711
1382790690452,0.000169324
1382790750452,0.000171565
1382790810452,0.000172782
1382790870452,0.000170307
1382790930452,0.000171633
1382790990453,0.000169422
1382791050453,0.000169994
1382791110453,0.000171009
1382791170453,0.000170136
1382791230453,0.000168941
1382791290452,0.000171534
1382791350453,0.000169490
1382791410453,0.000171942
1382791470453,0.000168848
1382791530453,0.000171062
1382791590453,0.000168911
1382791650453,0.000169029
1382791710453,0.000166920
1382791770453,0.000167569
1382791830453,0.000168860
1382791890453,0.000169457
1382791950452,0.000169143
1382792010452,0.000169018
1382792070452,0.000168706
1382792130452,0.000168676
1382792190452,0.000167760
1382792250452,0.000169575
1382792310452,0.000168509
1382792370453,0.000169195
1382792430464,0.000168053
1382792490464,0.000170351
1382792550464,0.000170633
1382792610464,0.000170144
1382792670464,0.000169241
1382792730464,0.000168156
1382792790464,0.000168015
1382792850464,0.000168880
1382792910464,0.000167050
1382792970464,0.000168881
1382793030464,0.000169060
1382793090464,0.000167330
1382793150464,0.000170309
1382793210464,0.000168669
1382793270464,0.000169855
1382793330464,0.000170694
1382793390464,0.000168391
1382793450464,0.000170549
1382793510464,0.000171701
1382793570464,0.000175505
1382793630464,0.000181802
1382793690464,0.000178184
1382793750464,0.000175990
1382793810464,0.000172868
1382793870464,0.000172784
1382793930464,0.000171935
1382793990464,0.000171426
1382794050464,0.000170091
1382794110464,0.000170694
1382794170464,0.000169084
1382794230464,0.000169317
1382794290464,0.000170326
1382794350464,0.000170002
1382794410464,0.000170181
1382794470464,0.000170133
1382794530464,0.000170255
1382794590464,0.000170736
1382794650464,0.000168870
1382794710464,0.000171076
1382794770464,0.000168984
1382794830464,0.000169017
1382794890464,0.000172086
1382794950464,0.000170951
1382795010464,0.000170279
1382795070464,0.000173583
1382795130464,0.000171683
1382795190464,0.000171300
1382795250464,0.000171026
1382795310464,0.000168750
1382795370464,0.000170922
1382795430464,0.000171151
1382795490464,0.000171287
1382795550464,0.000168930
1382795610464,0.000168547
1382795670464,0.000167631
1382795730464,0.000171123
1382795790464,0.000169416
1382795850464,0.000169814
1382795910464,0.000168799
1382795970464,0.000169263
1382796030475,0.000168662
1382796090475,0.000167574
1382796150475,0.000167516
1382796210475,0.000169209
1382796270475,0.000168371
1382796330475,0.000169252
1382796390475,0.000168621
1382796450475,0.000168478
1382796510475,0.000170208
1382796570475,0.000167831
1382796630475,0.000169000
1382796690475,0.000167526
1382796750475,0.000168164
1382796810475,0.000169040
1382796870475,0.000166138
1382796930475,0.000167684
1382796990475,0.000168273
1382797050475,0.000166529
1382797110475,0.000167960
1382797170475,0.000167939
1382797230475,0.000168349
1382797290475,0.000168585
1382797350475,0.000167406
1382797410475,0.000165679
1382797470475,0.000166846
1382797530475,0.000166695
1382797590475,0.000166155
1382797650475,0.000168426
1382797710475,0.000170358
1382797770475,0.000168497
1382797830475,0.000166377
1382797890475,0.000169775
1382797950475,0.000167846
1382798010475,0.000167429
1382798070475,0.000166421
1382798130475,0.000169222
1382798190475,0.000169859
1382798250475,0.000169564
1382798310475,0.000169632
1382798370475,0.000167706
1382798430475,0.000167517
1382798490475,0.000166904
1382798550475,0.000169156
1382798610475,0.000166967
1382798670475,0.000167481
1382798730475,0.000167354
1382798790475,0.000167213
1382798850475,0.000168157
1382798910475,0.000169310
1382798970475,0.000167754
1382799030475,0.000169308
1382799090475,0.000167953
1382799150475,0.000167913
1382799210475,0.000168032
1382799270475,0.000168084
1382799330475,0.000168137
1382799390475,0.000167730
1382799450475,0.000168121
1382799510475,0.000167643
1382799570475,0.000170684
1382799630486,0.000168659
1382799690486,0.000168067
1382799750486,0.000168964
1382799810486,0.000167888
1382799870486,0.000166062
1382799930486,0.000167861
1382799990486,0.000167998
1382800050486,0.000169184
1382800110486,0.000166917
1382800170486,0.000167324
1382800230486,0.000167274
1382800290486,0.000169003
1382800350486,0.000168120
1382800410486,0.000167267
1382800470486,0.000165834
1382800530486,0.000166559
1382800590486,0.000167371
1382800650486,0.000167718
1382800710486,0.000167060
1382800770486,0.000167094
1382800830486,0.000165664
1382800890486,0.000169254
1382800950486,0.000169370